Time,TemperatureF,DewpointF,PressureIn,WindDirection,WindDirectionDegrees,WindSpeedMPH,WindSpeedGustMPH,Humidity,HourlyPrecipIn,Conditions,Clouds,dailyrainin,SoftwareType,DateUTC
2013-06-06 00:03:00,61.7,47.7,30.08,WNW,285,5.0,8.0,60,0.00,,SKC,0.00,VWS V12.07,2013-06-06 07:03:00,
2013-06-06 00:13:00,60.9,46.9,30.06,West,273,5.0,8.0,60,0.00,,SKC,0.00,VWS V12.07,2013-06-06 07:13:00,
2013-06-06 00:23:00,60.1,46.6,30.06,West,268,7.0,8.0,61,0.00,,SKC,0.00,VWS V12.07,2013-06-06 07:23:00,
2013-06-06 00:33:00,60.1,46.6,30.07,West,268,3.0,7.0,61,0.00,,SKC,0.00,VWS V12.07,2013-06-06 07:33:00,
2013-06-06 00:40:00,59.8,46.8,30.06,West,268,4.0,7.0,62,0.00,,SKC,0.00,VWS V12.07,2013-06-06 07:40:00,
2013-06-06 00:52:00,59.8,46.8,30.06,West,268,4.0,7.0,62,0.00,,SKC,0.00,VWS V12.07,2013-06-06 07:52:00,
2013-06-06 01:02:00,59.9,46.4,30.05,West,268,4.0,5.0,61,0.00,,SKC,0.00,VWS V12.07,2013-06-06 08:02:00,
2013-06-06 01:12:00,59.5,46.1,30.06,West,268,1.0,5.0,61,0.00,,SKC,0.00,VWS V12.07,2013-06-06 08:12:00,
2013-06-06 01:22:00,58.2,46.1,30.06,West,268,2.0,5.0,64,0.00,,SKC,0.00,VWS V12.07,2013-06-06 08:22:00,
2013-06-06 01:32:00,58.1,46.0,30.06,West,268,3.0,5.0,64,0.00,,SKC,0.00,VWS V12.07,2013-06-06 08:32:00,
2013-06-06 01:42:00,57.3,45.7,30.05,West,268,4.0,7.0,65,0.00,,SKC,0.00,VWS V12.07,2013-06-06 08:42:00,
2013-06-06 01:52:00,56.8,45.6,30.05,SW,233,3.0,7.0,66,0.00,,SKC,0.00,VWS V12.07,2013-06-06 08:52:00,
2013-06-06 02:02:00,56.6,45.4,30.07,SW,233,4.0,5.0,66,0.00,,SKC,0.00,VWS V12.07,2013-06-06 09:02:00,
2013-06-06 02:12:00,56.3,45.5,30.05,SW,233,1.0,5.0,67,0.00,,SKC,0.00,VWS V12.07,2013-06-06 09:12:00,
2013-06-06 02:22:00,56.3,45.5,30.05,SW,233,1.0,5.0,67,0.00,,SKC,0.00,VWS V12.07,2013-06-06 09:22:00,
2013-06-06 02:32:00,56.1,45.3,30.05,SW,233,5.0,6.0,67,0.00,,SKC,0.00,VWS V12.07,2013-06-06 09:32:00,
2013-06-06 02:42:00,55.6,44.4,30.06,SW,233,3.0,6.0,66,0.00,,SKC,0.00,VWS V12.07,2013-06-06 09:42:00,
2013-06-06 02:52:00,55.0,44.3,30.04,SW,233,3.0,6.0,67,0.00,,SKC,0.00,VWS V12.07,2013-06-06 09:52:00,
2013-06-06 03:02:00,54.5,44.2,30.05,SW,233,3.0,5.0,68,0.00,,SKC,0.00,VWS V12.07,2013-06-06 10:02:00,
2013-06-06 03:12:00,54.1,44.2,30.05,SW,233,4.0,5.0,69,0.00,,SKC,0.00,VWS V12.07,2013-06-06 10:12:00,
2013-06-06 03:23:00,54.2,44.3,30.06,SW,233,2.0,5.0,69,0.00,,SKC,0.00,VWS V12.07,2013-06-06 10:23:00,
2013-06-06 03:32:00,54.4,44.1,30.05,SW,217,5.0,10.0,68,0.00,,SKC,0.00,VWS V12.07,2013-06-06 10:32:00,
2013-06-06 03:42:00,54.6,44.3,30.06,SW,218,4.0,10.0,68,0.00,,SKC,0.00,VWS V12.07,2013-06-06 10:42:00,
2013-06-06 03:52:00,54.6,43.9,30.04,SW,218,4.0,10.0,67,0.00,,SKC,0.00,VWS V12.07,2013-06-06 10:52:00,
2013-06-06 04:02:00,55.0,44.7,30.05,SW,223,3.0,7.0,68,0.00,,SKC,0.00,VWS V12.07,2013-06-06 11:02:00,
2013-06-06 04:13:00,55.0,44.7,30.07,SW,225,9.0,9.0,68,0.00,,SKC,0.00,VWS V12.07,2013-06-06 11:13:00,
2013-06-06 04:22:00,54.7,44.4,30.06,SW,227,4.0,9.0,68,0.00,,SKC,0.00,VWS V12.07,2013-06-06 11:22:00,
2013-06-06 04:33:00,54.4,44.5,30.04,SW,233,7.0,10.0,69,0.00,,SKC,0.00,VWS V12.07,2013-06-06 11:33:00,
2013-06-06 04:42:00,54.5,44.9,30.05,SW,236,4.0,10.0,70,0.00,,SKC,0.00,VWS V12.07,2013-06-06 11:42:00,
2013-06-06 04:52:00,54.5,44.9,30.07,WSW,238,3.0,10.0,70,0.00,,SKC,0.00,VWS V12.07,2013-06-06 11:52:00,
2013-06-06 05:03:00,53.7,44.2,30.06,WSW,239,2.0,7.0,70,0.00,,SKC,0.00,VWS V12.07,2013-06-06 12:03:00,
2013-06-06 05:12:00,53.1,44.0,30.06,WSW,239,7.0,8.0,71,0.00,,SKC,0.00,VWS V12.07,2013-06-06 12:12:00,
2013-06-06 05:23:00,53.0,44.2,30.07,WSW,239,4.0,9.0,72,0.00,,SKC,0.00,VWS V12.07,2013-06-06 12:23:00,
2013-06-06 05:33:00,52.9,44.5,30.06,SW,236,7.0,9.0,73,0.00,,SKC,0.00,VWS V12.07,2013-06-06 12:33:00,
2013-06-06 05:42:00,52.9,44.5,30.06,SW,226,11.0,11.0,73,0.00,,SKC,0.00,VWS V12.07,2013-06-06 12:42:00,
2013-06-06 05:52:00,53.3,44.5,30.05,SW,225,8.0,14.0,72,0.00,,SKC,0.00,VWS V12.07,2013-06-06 12:52:00,
2013-06-06 06:03:00,53.5,45.1,30.06,SW,236,7.0,10.0,73,0.00,,SKC,0.00,VWS V12.07,2013-06-06 13:03:00,
2013-06-06 06:12:00,53.7,44.9,30.05,SW,220,9.0,12.0,72,0.00,,SKC,0.00,VWS V12.07,2013-06-06 13:12:00,
2013-06-06 06:22:00,53.4,45.0,30.07,SW,216,9.0,13.0,73,0.00,,SKC,0.00,VWS V12.07,2013-06-06 13:22:00,
2013-06-06 06:33:00,53.4,45.3,30.06,SW,224,4.0,12.0,74,0.00,,SKC,0.00,VWS V12.07,2013-06-06 13:33:00,
2013-06-06 06:42:00,53.7,45.3,30.06,WSW,242,5.0,12.0,73,0.00,,SKC,0.00,VWS V12.07,2013-06-06 13:42:00,
2013-06-06 06:52:00,54.1,46.0,30.06,WSW,243,5.0,12.0,74,0.00,,SKC,0.00,VWS V12.07,2013-06-06 13:52:00,
2013-06-06 07:02:00,55.4,46.5,30.08,SW,235,2.0,9.0,72,0.00,,SKC,0.00,VWS V12.07,2013-06-06 14:02:00,
2013-06-06 07:12:00,56.3,47.0,30.06,SW,214,7.0,10.0,71,0.00,,SKC,0.00,VWS V12.07,2013-06-06 14:12:00,
2013-06-06 07:22:00,56.9,47.2,30.07,SSW,210,7.0,12.0,70,0.00,,SKC,0.00,VWS V12.07,2013-06-06 14:22:00,
2013-06-06 07:32:00,57.4,47.3,30.08,SW,225,5.0,8.0,69,0.00,,SKC,0.00,VWS V12.07,2013-06-06 14:32:00,
2013-06-06 07:42:00,58.3,47.8,30.07,SW,229,4.0,8.0,68,0.00,,SKC,0.00,VWS V12.07,2013-06-06 14:42:00,
2013-06-06 07:52:00,59.5,48.2,30.06,SW,229,4.0,8.0,66,0.00,,SKC,0.00,VWS V12.07,2013-06-06 14:52:00,
2013-06-06 08:02:00,60.5,48.7,30.08,SW,230,1.0,5.0,65,0.00,,SKC,0.00,VWS V12.07,2013-06-06 15:02:00,
2013-06-06 08:12:00,61.5,49.2,30.06,SW,224,2.0,7.0,64,0.00,,SKC,0.00,VWS V12.07,2013-06-06 15:12:00,
2013-06-06 08:22:00,62.0,49.3,30.08,SW,224,2.0,7.0,63,0.00,,SKC,0.00,VWS V12.07,2013-06-06 15:22:00,
2013-06-06 08:32:00,62.6,49.0,30.06,SW,225,3.0,5.0,61,0.00,,SKC,0.00,VWS V12.07,2013-06-06 15:32:00,
2013-06-06 08:42:00,63.4,48.4,30.08,SW,224,0.0,5.0,58,0.00,,SKC,0.00,VWS V12.07,2013-06-06 15:42:00,
2013-06-06 08:52:00,64.0,47.0,30.07,SW,224,2.0,5.0,54,0.00,,SKC,0.00,VWS V12.07,2013-06-06 15:52:00,
2013-06-06 09:02:00,64.4,47.9,30.07,SW,226,2.0,5.0,55,0.00,,SKC,0.00,VWS V12.07,2013-06-06 16:02:00,
2013-06-06 09:12:00,65.3,47.8,30.07,SW,235,0.0,7.0,53,0.00,,SKC,0.00,VWS V12.07,2013-06-06 16:12:00,
2013-06-06 09:23:00,65.8,47.7,30.08,WNW,296,5.0,8.0,52,0.00,,SKC,0.00,VWS V12.07,2013-06-06 16:23:00,
2013-06-06 09:33:00,66.8,48.1,30.08,NNW,347,1.0,6.0,51,0.00,,SKC,0.00,VWS V12.07,2013-06-06 16:33:00,
2013-06-06 09:42:00,67.4,47.6,30.07,ENE,66,1.0,7.0,49,0.00,,SKC,0.00,VWS V12.07,2013-06-06 16:42:00,
2013-06-06 09:52:00,68.6,48.2,30.07,ENE,67,7.0,8.0,48,0.00,,SKC,0.00,VWS V12.07,2013-06-06 16:52:00,
2013-06-06 10:02:00,68.1,47.1,30.07,NE,49,6.0,8.0,47,0.00,,SKC,0.00,VWS V12.07,2013-06-06 17:02:00,
2013-06-06 10:12:00,67.9,47.5,30.07,NNE,18,0.0,9.0,48,0.00,,SKC,0.00,VWS V12.07,2013-06-06 17:12:00,
2013-06-06 10:22:00,69.7,47.4,30.07,ENE,66,2.0,9.0,45,0.00,,SKC,0.00,VWS V12.07,2013-06-06 17:22:00,
2013-06-06 10:32:00,69.6,47.3,30.06,ESE,116,3.0,5.0,45,0.00,,SKC,0.00,VWS V12.07,2013-06-06 17:32:00,
2013-06-06 10:42:00,69.5,47.2,30.06,East,97,3.0,7.0,45,0.00,,SKC,0.00,VWS V12.07,2013-06-06 17:42:00,
2013-06-06 10:52:00,70.9,48.5,30.07,East,82,2.0,7.0,45,0.00,,SKC,0.00,VWS V12.07,2013-06-06 17:52:00,
2013-06-06 11:02:00,70.4,46.2,30.05,North,0,0.0,6.0,42,0.00,,SKC,0.00,VWS V12.07,2013-06-06 18:02:00,
2013-06-06 11:12:00,70.9,46.7,30.07,North,352,7.0,7.0,42,0.00,,SKC,0.00,VWS V12.07,2013-06-06 18:12:00,
2013-06-06 11:22:00,71.3,47.0,30.06,NNW,328,6.0,10.0,42,0.00,,SKC,0.00,VWS V12.07,2013-06-06 18:22:00,
2013-06-06 11:32:00,71.4,47.1,30.06,NNW,347,0.0,6.0,42,0.00,,SKC,0.00,VWS V12.07,2013-06-06 18:32:00,
2013-06-06 11:42:00,72.4,46.1,30.06,NNW,340,3.0,10.0,39,0.00,,SKC,0.00,VWS V12.07,2013-06-06 18:42:00,
2013-06-06 11:52:00,73.0,46.6,30.06,SW,232,5.0,10.0,39,0.00,,SKC,0.00,VWS V12.07,2013-06-06 18:52:00,
2013-06-06 12:02:00,74.1,46.2,30.06,SSE,168,2.0,7.0,37,0.00,,SKC,0.00,VWS V12.07,2013-06-06 19:02:00,
2013-06-06 12:12:00,73.9,45.3,30.06,ENE,64,5.0,10.0,36,0.00,,SKC,0.00,VWS V12.07,2013-06-06 19:12:00,
2013-06-06 12:22:00,75.1,45.6,30.05,ESE,103,6.0,11.0,35,0.00,,SKC,0.00,VWS V12.07,2013-06-06 19:22:00,
2013-06-06 12:32:00,75.7,46.9,30.04,East,84,4.0,7.0,36,0.00,,SKC,0.00,VWS V12.07,2013-06-06 19:32:00,
2013-06-06 12:42:00,76.4,46.0,30.05,NE,44,7.0,12.0,34,0.00,,SKC,0.00,VWS V12.07,2013-06-06 19:42:00,
2013-06-06 12:52:00,75.9,45.5,30.05,ENE,65,8.0,12.0,34,0.00,,SKC,0.00,VWS V12.07,2013-06-06 19:52:00,
2013-06-06 13:02:00,76.2,45.0,30.05,NE,42,7.0,10.0,33,0.00,,SKC,0.00,VWS V12.07,2013-06-06 20:02:00,
2013-06-06 13:12:00,76.3,45.9,30.04,NE,51,6.0,10.0,34,0.00,,SKC,0.00,VWS V12.07,2013-06-06 20:12:00,
2013-06-06 13:23:00,77.1,45.8,30.03,ESE,113,7.0,14.0,33,0.00,,SKC,0.00,VWS V12.07,2013-06-06 20:23:00,
2013-06-06 13:32:00,77.4,46.1,30.03,NE,42,9.0,12.0,33,0.00,,SKC,0.00,VWS V12.07,2013-06-06 20:32:00,
2013-06-06 13:42:00,77.3,46.0,30.04,NE,49,4.0,14.0,33,0.00,,SKC,0.00,VWS V12.07,2013-06-06 20:42:00,
2013-06-06 13:52:00,77.7,46.3,30.04,NE,51,4.0,14.0,33,0.00,,SKC,0.00,VWS V12.07,2013-06-06 20:52:00,
2013-06-06 14:02:00,77.6,46.2,30.03,East,94,2.0,12.0,33,0.00,,SKC,0.00,VWS V12.07,2013-06-06 21:02:00,
2013-06-06 14:12:00,77.9,46.5,30.02,NNE,25,0.0,14.0,33,0.00,,SKC,0.00,VWS V12.07,2013-06-06 21:12:00,
2013-06-06 14:22:00,78.5,47.0,30.02,SE,134,5.0,14.0,33,0.00,,SKC,0.00,VWS V12.07,2013-06-06 21:22:00,
2013-06-06 14:32:00,79.1,47.6,30.03,NE,53,3.0,9.0,33,0.00,,SKC,0.00,VWS V12.07,2013-06-06 21:32:00,
2013-06-06 14:42:00,79.8,47.3,30.03,ENE,61,8.0,9.0,32,0.00,,SKC,0.00,VWS V12.07,2013-06-06 21:42:00,
2013-06-06 14:52:00,80.2,47.7,30.02,NNW,348,7.0,16.0,32,0.00,,SKC,0.00,VWS V12.07,2013-06-06 21:52:00,
2013-06-06 15:02:00,80.1,46.8,30.02,NNE,27,7.0,12.0,31,0.00,,SKC,0.00,VWS V12.07,2013-06-06 22:02:00,
2013-06-06 15:12:00,80.2,46.0,30.01,NNE,19,13.0,17.0,30,0.00,,SKC,0.00,VWS V12.07,2013-06-06 22:12:00,
2013-06-06 15:22:00,80.4,47.0,30.01,WNW,293,2.0,17.0,31,0.00,,SKC,0.00,VWS V12.07,2013-06-06 22:22:00,
2013-06-06 15:32:00,81.4,47.0,30.02,NNE,25,10.0,14.0,30,0.00,,SKC,0.00,VWS V12.07,2013-06-06 22:32:00,
2013-06-06 15:42:00,81.0,45.8,30.01,North,0,7.0,18.0,29,0.00,,SKC,0.00,VWS V12.07,2013-06-06 22:42:00,
2013-06-06 15:52:00,80.4,43.4,30.01,NNW,342,13.0,34.0,27,0.00,,SKC,0.00,VWS V12.07,2013-06-06 22:52:00,
2013-06-06 16:02:00,81.5,44.3,30.00,NNW,343,11.0,19.0,27,0.00,,SKC,0.00,VWS V12.07,2013-06-06 23:02:00,
2013-06-06 16:12:00,81.2,44.1,30.01,NNE,14,6.0,19.0,27,0.00,,SKC,0.00,VWS V12.07,2013-06-06 23:12:00,
2013-06-06 16:22:00,81.7,44.5,30.00,North,0,5.0,21.0,27,0.00,,SKC,0.00,VWS V12.07,2013-06-06 23:22:00,
2013-06-06 16:32:00,81.5,43.3,30.00,North,7,7.0,13.0,26,0.00,,SKC,0.00,VWS V12.07,2013-06-06 23:32:00,
2013-06-06 16:42:00,81.9,42.7,30.01,NNE,15,4.0,14.0,25,0.00,,SKC,0.00,VWS V12.07,2013-06-06 23:42:00,
2013-06-06 16:52:00,81.9,43.7,30.01,North,350,13.0,27.0,26,0.00,,SKC,0.00,VWS V12.07,2013-06-06 23:52:00,
2013-06-06 17:02:00,82.1,43.8,30.01,North,10,10.0,13.0,26,0.00,,SKC,0.00,VWS V12.07,2013-06-07 00:02:00,
2013-06-06 17:12:00,82.7,44.4,30.01,NNW,328,6.0,15.0,26,0.00,,SKC,0.00,VWS V12.07,2013-06-07 00:12:00,
2013-06-06 17:22:00,81.9,43.7,30.01,NNW,346,4.0,18.0,26,0.00,,SKC,0.00,VWS V12.07,2013-06-07 00:22:00,
2013-06-06 17:32:00,81.4,43.3,30.00,North,352,9.0,12.0,26,0.00,,SKC,0.00,VWS V12.07,2013-06-07 00:32:00,
2013-06-06 17:42:00,81.5,43.3,29.99,NNE,21,3.0,19.0,26,0.00,,SKC,0.00,VWS V12.07,2013-06-07 00:42:00,
2013-06-06 17:52:00,82.1,43.8,29.99,NNW,328,12.0,19.0,26,0.00,,SKC,0.00,VWS V12.07,2013-06-07 00:52:00,
2013-06-06 18:02:00,81.3,45.1,30.00,North,351,9.0,15.0,28,0.00,,SKC,0.00,VWS V12.07,2013-06-07 01:02:00,
2013-06-06 18:12:00,80.7,44.6,30.01,North,354,9.0,19.0,28,0.00,,SKC,0.00,VWS V12.07,2013-06-07 01:12:00,
2013-06-06 18:23:00,80.7,46.4,30.00,NW,317,13.0,21.0,30,0.00,,SKC,0.00,VWS V12.07,2013-06-07 01:23:00,
2013-06-06 18:33:00,81.0,48.4,30.00,North,357,9.0,14.0,32,0.00,,SKC,0.00,VWS V12.07,2013-06-07 01:33:00,
2013-06-06 18:43:00,79.8,49.0,30.01,North,357,11.0,18.0,34,0.00,,SKC,0.00,VWS V12.07,2013-06-07 01:43:00,
2013-06-06 18:52:00,78.9,49.7,30.00,North,5,16.0,21.0,36,0.00,,SKC,0.00,VWS V12.07,2013-06-07 01:52:00,
2013-06-06 19:02:00,78.2,50.5,30.01,NNW,333,12.0,16.0,38,0.00,,SKC,0.00,VWS V12.07,2013-06-07 02:02:00,
2013-06-06 19:12:00,77.3,50.4,30.01,NNW,339,16.0,27.0,39,0.00,,SKC,0.00,VWS V12.07,2013-06-07 02:12:00,
2013-06-06 19:22:00,76.4,51.6,30.01,NNW,336,18.0,27.0,42,0.00,,SKC,0.00,VWS V12.07,2013-06-07 02:22:00,
2013-06-06 19:32:00,75.7,52.3,30.02,NW,326,13.0,14.0,44,0.00,,SKC,0.00,VWS V12.07,2013-06-07 02:32:00,
2013-06-06 19:42:00,75.2,51.8,30.02,NNW,330,14.0,20.0,44,0.00,,SKC,0.00,VWS V12.07,2013-06-07 02:42:00,
2013-06-06 19:52:00,74.6,51.9,30.02,NNW,341,12.0,22.0,45,0.00,,SKC,0.00,VWS V12.07,2013-06-07 02:52:00,
2013-06-06 20:02:00,74.1,52.6,30.02,NNW,330,12.0,16.0,47,0.00,,SKC,0.00,VWS V12.07,2013-06-07 03:02:00,
2013-06-06 20:12:00,73.7,52.8,30.03,NNW,342,9.0,16.0,48,0.00,,SKC,0.00,VWS V12.07,2013-06-07 03:12:00,
2013-06-06 20:22:00,72.9,52.6,30.03,NNW,340,11.0,19.0,49,0.00,,SKC,0.00,VWS V12.07,2013-06-07 03:22:00,
2013-06-06 20:32:00,72.6,52.4,30.04,NNW,339,9.0,12.0,49,0.00,,SKC,0.00,VWS V12.07,2013-06-07 03:32:00,
2013-06-06 20:42:00,72.1,52.5,30.04,NNW,346,9.0,16.0,50,0.00,,SKC,0.00,VWS V12.07,2013-06-07 03:42:00,
2013-06-06 20:52:00,71.6,52.5,30.05,North,349,10.0,17.0,51,0.00,,SKC,0.00,VWS V12.07,2013-06-07 03:52:00,
2013-06-06 21:02:00,70.9,52.4,30.03,NNW,348,8.0,15.0,52,0.00,,SKC,0.00,VWS V12.07,2013-06-07 04:02:00,
2013-06-06 21:12:00,70.6,52.1,30.03,NNW,341,14.0,17.0,52,0.00,,SKC,0.00,VWS V12.07,2013-06-07 04:12:00,
2013-06-06 21:22:00,70.1,52.7,30.04,North,350,8.0,17.0,54,0.00,,SKC,0.00,VWS V12.07,2013-06-07 04:22:00,
2013-06-06 21:32:00,69.7,52.3,30.06,North,351,1.0,5.0,54,0.00,,SKC,0.00,VWS V12.07,2013-06-07 04:32:00,
2013-06-06 21:42:00,69.2,52.4,30.06,North,351,3.0,5.0,55,0.00,,SKC,0.00,VWS V12.07,2013-06-07 04:42:00,
2013-06-06 21:52:00,68.9,52.1,30.06,North,351,1.0,5.0,55,0.00,,SKC,0.00,VWS V12.07,2013-06-07 04:52:00,
2013-06-06 22:02:00,68.4,52.1,30.05,North,351,0.0,0.0,56,0.00,,SKC,0.00,VWS V12.07,2013-06-07 05:02:00,
2013-06-06 22:12:00,68.0,52.2,30.06,North,351,3.0,5.0,57,0.00,,SKC,0.00,VWS V12.07,2013-06-07 05:12:00,
2013-06-06 22:22:00,67.4,51.7,30.07,North,351,2.0,7.0,57,0.00,,SKC,0.00,VWS V12.07,2013-06-07 05:22:00,
2013-06-06 22:32:00,67.1,51.8,30.07,North,351,2.0,5.0,58,0.00,,SKC,0.00,VWS V12.07,2013-06-07 05:32:00,
2013-06-06 22:42:00,66.9,52.6,30.06,North,3,5.0,9.0,60,0.00,,SKC,0.00,VWS V12.07,2013-06-07 05:42:00,
2013-06-06 22:52:00,65.9,52.1,30.06,NNE,16,4.0,9.0,61,0.00,,SKC,0.00,VWS V12.07,2013-06-07 05:52:00,
2013-06-06 23:02:00,65.2,51.9,30.06,NNE,23,5.0,5.0,62,0.00,,SKC,0.00,VWS V12.07,2013-06-07 06:02:00,
2013-06-06 23:12:00,64.9,51.6,30.07,NNE,29,6.0,10.0,62,0.00,,SKC,0.00,VWS V12.07,2013-06-07 06:12:00,
2013-06-06 23:22:00,64.7,51.4,30.08,NNE,30,7.0,10.0,62,0.00,,SKC,0.00,VWS V12.07,2013-06-07 06:22:00,
2013-06-06 23:32:00,63.9,51.1,30.07,NNE,29,3.0,5.0,63,0.00,,SKC,0.00,VWS V12.07,2013-06-07 06:32:00,
2013-06-06 23:42:00,63.1,51.2,30.08,North,0,4.0,9.0,65,0.00,,SKC,0.00,VWS V12.07,2013-06-07 06:42:00,
2013-06-06 23:52:00,62.6,50.7,30.08,North,0,2.0,9.0,65,0.00,,SKC,0.00,VWS V12.07,2013-06-07 06:52:00,